Simultaneous Nadir Overpasses (SNOs) Predictions

Prediction of SNOs between GOES-16 and METOP-B Satellite Orbit:

Table of predicted SNOs for the next 14.0 days since TLE Epoch: 10/10/2020
Index Date Time (GOES-16) GOES-16 Lat,Lon METOP-B Lat,Lon Distance(km) Time Diff (sec)
1 10/10/2020 14:17:22 -0.03, -75.26 -0.69, -72.28 339.61 80
2 10/12/2020 02:39:03 0.03, -75.25 -0.34, -76.88 185.58 80
3 10/13/2020 02:15:45 0.03, -75.26 0.80, -71.89 384.81 80
4 10/14/2020 14:37:17 -0.03, -75.31 0.22, -76.45 129.22 80
5 10/15/2020 14:13:59 -0.03, -75.33 -0.92, -71.46 441.49 80
6 10/17/2020 02:35:39 0.03, -75.33 -0.16, -76.05 82.69 80
7 10/18/2020 02:12:20 0.03, -75.34 0.97, -71.06 488.38 80
8 10/19/2020 14:33:53 -0.02, -75.40 0.05, -75.62 25.02 80
9 10/22/2020 02:29:36 0.01, -75.42 0.07, -75.23 23.05 80
10 10/23/2020 14:51:08 -0.01, -75.49 0.96, -79.78 489.63 80
